Language: 


Des rapports , des résumés tant et plus, au choix de chacun....


Données statistiques de la station
Quotidien Rapport Juin 19, 2017 Unités:  Anglais    Métrique   les deux
« Précédent Jour
Suivant Jour »
Quotidien Hebdomadaire Mensuel Annuel Actuel
  Haut: Bas: Moyen:
Température: 95.7 °F 61.9 °F 79.2 °F
Pt de rosée: 68 °F 53.6 °F 59.9 °F
Humidité: 93 % 25 % 57 %
Vitesse du vent: 8.7 mph 0 mph 2.1 mph
Rafales: 10.7 mph - -
Vent:- - South
Pression: 30.2 in 30 in -
Précipitation: 0 in    
Historical Graphs
 
 
Données statistiques pour Juin 19, 2017
Heure Température Point de rosée Pression Vent Vitesse du vent Refales Humidité Pluie (taux horaire)
00:03 67.8 °F 60.8 °F 30.2 in Calm   3.6 mph 77 % 0 in
00:08 67.6 °F 60.8 °F 30.2 in Calm   2.7 mph 77 % 0 in
00:13 67.5 °F 60.8 °F 30.2 in Calm   3.1 mph 78 % 0 in
00:18 67.3 °F 60.8 °F 30.2 in North 2.5 mph 3.1 mph 79 % 0 in
00:21 67.3 °F 60.8 °F 30.2 in Calm   4 mph 80 % 0 in
00:27 67.1 °F 60.8 °F 30.2 in NE 3.1 mph 4.9 mph 81 % 0 in
00:32 66.9 °F 60.8 °F 30.2 in NNW 2.9 mph 4.9 mph 81 % 0 in
00:37 66.7 °F 60.8 °F 30.2 in NNE 3.6 mph 4 mph 81 % 0 in
00:42 66.7 °F 60.8 °F 30.2 in Calm   4.3 mph 81 % 0 in
00:47 66.6 °F 60.8 °F 30.2 in Calm   4.3 mph 82 % 0 in
00:52 66.6 °F 60.8 °F 30.2 in NNE 2.9 mph 3.8 mph 81 % 0 in
00:57 66.4 °F 60.8 °F 30.2 in NNE 1.3 mph 4 mph 82 % 0 in
01:02 66.4 °F 60.8 °F 30.2 in Calm   4.7 mph 82 % 0 in
01:07 66.4 °F 60.8 °F 30.2 in NNE 3.6 mph 4.7 mph 83 % 0 in
01:12 66.4 °F 60.8 °F 30.2 in NNE 4.3 mph 4.3 mph 83 % 0 in
01:17 66.4 °F 60.8 °F 30.2 in NNE 1.3 mph 4.3 mph 83 % 0 in
01:22 66.4 °F 60.8 °F 30.2 in North 3.4 mph 4.5 mph 83 % 0 in
01:27 66.2 °F 60.8 °F 30.2 in North 4.3 mph 4.3 mph 84 % 0 in
01:32 66.2 °F 60.8 °F 30.2 in Calm   4.3 mph 84 % 0 in
01:37 66 °F 62.6 °F 30.2 in NNE 2.9 mph 4.3 mph 85 % 0 in
01:42 66 °F 60.8 °F 30.2 in Calm   4.7 mph 84 % 0 in
01:47 65.8 °F 60.8 °F 30.2 in NE 4.3 mph 4.7 mph 85 % 0 in
01:52 65.7 °F 60.8 °F 30.2 in NE 2.7 mph 4.3 mph 85 % 0 in
01:57 65.7 °F 60.8 °F 30.2 in North 2.7 mph 4.7 mph 85 % 0 in
02:02 65.5 °F 60.8 °F 30.2 in North 3.1 mph 4.7 mph 86 % 0 in
02:03 65.5 °F 60.8 °F 30.2 in NE 3.4 mph 4.3 mph 86 % 0 in
02:08 65.5 °F 60.8 °F 30.2 in NNE 4 mph 4.3 mph 85 % 0 in
02:13 65.3 °F 60.8 °F 30.2 in NNE 1.1 mph 4.3 mph 86 % 0 in
02:18 65.3 °F 60.8 °F 30.2 in Calm   4.3 mph 86 % 0 in
02:23 65.1 °F 60.8 °F 30.2 in Calm   3.1 mph 86 % 0 in
02:28 64.9 °F 60.8 °F 30.2 in Calm   2.9 mph 86 % 0 in
02:33 64.8 °F 60.8 °F 30.2 in Calm   2.9 mph 86 % 0 in
02:38 64.6 °F 60.8 °F 30.2 in Calm   2.9 mph 87 % 0 in
02:43 64.6 °F 60.8 °F 30.2 in Calm   4.3 mph 87 % 0 in
02:48 64.6 °F 60.8 °F 30.2 in North 3.6 mph 4.3 mph 87 % 0 in
02:53 64.6 °F 60.8 °F 30.2 in North 3.6 mph 3.6 mph 88 % 0 in
02:59 64.4 °F 60.8 °F 30.2 in Calm   3.6 mph 88 % 0 in
03:04 64.4 °F 60.8 °F 30.2 in NNE 0.9 mph 3.6 mph 87 % 0 in
03:09 64.2 °F 60.8 °F 30.2 in Calm   3.6 mph 87 % 0 in
03:14 64 °F 60.8 °F 30.2 in Calm   2.9 mph 88 % 0 in
03:19 64 °F 60.8 °F 30.2 in NNE 3.6 mph 3.8 mph 88 % 0 in
03:24 63.9 °F 60.8 °F 30.2 in North 2.9 mph 3.8 mph 88 % 0 in
03:29 63.9 °F 60.8 °F 30.2 in NNE 2.7 mph 4 mph 89 % 0 in
03:34 63.9 °F 60.8 °F 30.1 in North 2.7 mph 4 mph 89 % 0 in
03:39 63.7 °F 60.8 °F 30.1 in Calm   3.4 mph 89 % 0 in
03:44 63.5 °F 60.8 °F 30.1 in NE 1.6 mph 2.9 mph 89 % 0 in
03:49 63.5 °F 60.8 °F 30.1 in Calm   3.1 mph 90 % 0 in
03:54 63.5 °F 60.8 °F 30.1 in North 2.5 mph 4.7 mph 90 % 0 in
03:59 63.5 °F 60.8 °F 30.1 in ENE 2.9 mph 4.7 mph 90 % 0 in
04:04 63.5 °F 60.8 °F 30.1 in Calm   3.6 mph 89 % 0 in
04:09 63.1 °F 60.8 °F 30.1 in Calm   3.6 mph 89 % 0 in
04:14 63.1 °F 60.8 °F 30.1 in NNE 3.6 mph 3.6 mph 90 % 0 in
04:19 63.1 °F 60.8 °F 30.1 in NE 2.2 mph 3.6 mph 90 % 0 in
04:24 63.1 °F 60.8 °F 30.1 in Calm   3.6 mph 90 % 0 in
04:29 63 °F 60.8 °F 30.1 in NE 0.9 mph 2.2 mph 90 % 0 in
04:34 62.8 °F 59 °F 30.1 in Calm   2.5 mph 90 % 0 in
04:39 62.6 °F 59 °F 30.1 in Calm   2.5 mph 90 % 0 in
04:44 62.6 °F 59 °F 30.1 in Calm     90 % 0 in
04:49 62.6 °F 59 °F 30.1 in Calm   3.4 mph 90 % 0 in
04:54 62.6 °F 60.8 °F 30.1 in Calm   3.4 mph 91 % 0 in
04:59 62.6 °F 60.8 °F 30.1 in Calm   2.5 mph 91 % 0 in
05:04 62.4 °F 60.8 °F 30.1 in Calm   2.5 mph 91 % 0 in
05:09 62.4 °F 60.8 °F 30.1 in Calm   2.5 mph 91 % 0 in
05:15 62.2 °F 59 °F 30.1 in Calm   3.1 mph 91 % 0 in
05:20 62.2 °F 59 °F 30.1 in Calm   3.1 mph 91 % 0 in
05:25 62.1 °F 59 °F 30.1 in Calm   2.5 mph 91 % 0 in
05:30 61.9 °F 59 °F 30.1 in Calm   2.5 mph 91 % 0 in
05:35 61.9 °F 59 °F 30.1 in Calm   2.7 mph 92 % 0 in
05:40 61.9 °F 59 °F 30.1 in Calm   2.7 mph 92 % 0 in
05:45 61.9 °F 59 °F 30.1 in NNE 3.8 mph 3.8 mph 92 % 0 in
05:50 61.9 °F 59 °F 30.1 in Calm   3.8 mph 92 % 0 in
05:55 62.1 °F 59 °F 30.1 in Calm   4 mph 92 % 0 in
06:00 62.1 °F 59 °F 30.1 in North 2.9 mph 4 mph 92 % 0 in
06:05 62.2 °F 60.8 °F 30.1 in Calm   4 mph 93 % 0 in
06:08 62.2 °F 59 °F 30.1 in Calm   4 mph 92 % 0 in
06:13 62.4 °F 60.8 °F 30.1 in Calm   0.9 mph 92 % 0 in
06:18 62.6 °F 60.8 °F 30.1 in Calm   3.1 mph 92 % 0 in
06:23 63 °F 60.8 °F 30.1 in Calm   3.1 mph 92 % 0 in
06:25 63 °F 60.8 °F 30.1 in Calm   3.1 mph 92 % 0 in
06:30 63.3 °F 60.8 °F 30.1 in Calm   3.1 mph 92 % 0 in
06:31 63.3 °F 60.8 °F 30.1 in Calm   3.4 mph 92 % 0 in
06:36 63.7 °F 60.8 °F 30.1 in Calm   3.4 mph 92 % 0 in
06:42 64.2 °F 62.6 °F 30.1 in Calm   2.9 mph 92 % 0 in
06:47 64.6 °F 62.6 °F 30.1 in Calm   2.9 mph 91 % 0 in
06:52 65.1 °F 62.6 °F 30.1 in Calm   0.9 mph 91 % 0 in
06:57 65.7 °F 62.6 °F 30.1 in Calm   2.5 mph 91 % 0 in
07:02 66.2 °F 62.6 °F 30.1 in Calm   2.5 mph 90 % 0 in
07:07 66.6 °F 64.4 °F 30.1 in Calm   1.3 mph 90 % 0 in
07:12 67.1 °F 64.4 °F 30.1 in Calm     89 % 0 in
07:17 67.6 °F 64.4 °F 30.1 in Calm     89 % 0 in
07:22 68.4 °F 64.4 °F 30.1 in Calm     88 % 0 in
07:27 69.1 °F 66.2 °F 30.1 in Calm     88 % 0 in
07:32 69.6 °F 66.2 °F 30.1 in Calm     87 % 0 in
07:37 70.3 °F 66.2 °F 30.1 in Calm     86 % 0 in
07:42 71.1 °F 66.2 °F 30.1 in Calm   0.9 mph 85 % 0 in
07:47 71.8 °F 66.2 °F 30.1 in SE 0.9 mph 2.9 mph 83 % 0 in
07:52 72.3 °F 66.2 °F 30.1 in Calm   2.9 mph 81 % 0 in
07:54 72.5 °F 66.2 °F 30.1 in Calm   2.9 mph 81 % 0 in
07:59 72.7 °F 66.2 °F 30.1 in Calm   2.2 mph 79 % 0 in
08:04 73.2 °F 66.2 °F 30.1 in Calm   2.2 mph 78 % 0 in
08:09 73.8 °F 66.2 °F 30.1 in Calm     77 % 0 in
08:14 74.3 °F 66.2 °F 30.1 in Calm   2 mph 76 % 0 in
08:19 75 °F 68 °F 30.1 in Calm   2 mph 76 % 0 in
08:24 75.7 °F 68 °F 30.1 in Calm     74 % 0 in
08:29 76.5 °F 68 °F 30.1 in Calm     72 % 0 in
08:34 76.8 °F 68 °F 30.1 in Calm     72 % 0 in
08:39 77.7 °F 68 °F 30.1 in Calm     71 % 0 in
08:44 78.6 °F 68 °F 30.1 in Calm     70 % 0 in
08:50 79.2 °F 68 °F 30.1 in Calm     68 % 0 in
08:55 79.3 °F 68 °F 30.1 in Calm     66 % 0 in
09:00 79.7 °F 68 °F 30.1 in Calm     64 % 0 in
09:05 80.1 °F 68 °F 30.1 in Calm   2.5 mph 64 % 0 in
09:10 80.6 °F 66.2 °F 30.1 in Calm   2.5 mph 62 % 0 in
09:15 81 °F 66.2 °F 30.1 in Calm   1.3 mph 59 % 0 in
09:20 80.8 °F 64.4 °F 30.1 in Calm   1.6 mph 57 % 0 in
09:25 81 °F 64.4 °F 30.1 in Calm   1.6 mph 57 % 0 in
09:30 81.3 °F 64.4 °F 30.1 in Calm   1.6 mph 55 % 0 in
09:35 81.5 °F 64.4 °F 30.1 in Calm     56 % 0 in
09:40 81.7 °F 64.4 °F 30.1 in Calm     55 % 0 in
09:45 82.4 °F 64.4 °F 30.1 in Calm   3.4 mph 54 % 0 in
09:50 83.1 °F 64.4 °F 30.1 in Calm   3.4 mph 52 % 0 in
09:55 83.8 °F 64.4 °F 30.1 in Calm   2 mph 52 % 0 in
10:00 84.2 °F 64.4 °F 30.1 in Calm   1.3 mph 51 % 0 in
10:05 84.7 °F 62.6 °F 30.1 in Calm   1.3 mph 48 % 0 in
10:10 84.9 °F 62.6 °F 30.1 in Calm   0.9 mph 48 % 0 in
10:15 84.9 °F 62.6 °F 30.1 in East 0.9 mph 2.7 mph 46 % 0 in
10:20 85.5 °F 62.6 °F 30.1 in Calm   3.4 mph 46 % 0 in
10:25 86 °F 62.6 °F 30.1 in Calm   3.4 mph 46 % 0 in
10:30 85.6 °F 60.8 °F 30.1 in Calm   3.4 mph 43 % 0 in
10:35 86.2 °F 60.8 °F 30.1 in Calm   4.5 mph 43 % 0 in
10:40 86 °F 59 °F 30.1 in West 2.9 mph 4.5 mph 41 % 0 in
10:45 86.2 °F 60.8 °F 30.1 in Calm   4.5 mph 43 % 0 in
10:50 86.7 °F 60.8 °F 30.1 in Calm   4.5 mph 42 % 0 in
10:56 87.4 °F 60.8 °F 30.1 in Calm   2.9 mph 42 % 0 in
11:01 88 °F 60.8 °F 30.1 in East 1.1 mph 2.9 mph 41 % 0 in
11:06 87.8 °F 60.8 °F 30.1 in Calm   4 mph 40 % 0 in
11:11 87.6 °F 60.8 °F 30.1 in Calm   4 mph 41 % 0 in
11:16 87.8 °F 59 °F 30.1 in ENE 2.7 mph 4.3 mph 38 % 0 in
11:17 87.8 °F 59 °F 30.1 in Calm   4.3 mph 38 % 0 in
11:22 88 °F 59 °F 30.1 in Calm   4.3 mph 38 % 0 in
11:27 88 °F 59 °F 30.1 in Calm   4 mph 38 % 0 in
11:32 88.7 °F 60.8 °F 30.1 in Calm   4 mph 38 % 0 in
11:37 88.7 °F 60.8 °F 30.1 in Calm   3.1 mph 38 % 0 in
11:42 88.9 °F 59 °F 30.1 in Calm   3.1 mph 37 % 0 in
11:47 89.2 °F 60.8 °F 30.1 in Calm   2.5 mph 38 % 0 in
11:52 89.2 °F 59 °F 30.1 in ENE 2.9 mph 6.3 mph 37 % 0 in
11:57 89.4 °F 59 °F 30.1 in Calm   6.3 mph 35 % 0 in
12:02 88.7 °F 57.2 °F 30.1 in Calm   6.5 mph 34 % 0 in
12:07 89.4 °F 59 °F 30.1 in SE 1.6 mph 6.5 mph 36 % 0 in
12:12 89.2 °F 57.2 °F 30.1 in NNE 2.2 mph 6.5 mph 35 % 0 in
12:17 89.1 °F 57.2 °F 30.1 in North 4.3 mph 8.5 mph 35 % 0 in
12:22 89.1 °F 59 °F 30.1 in NNE 2.2 mph 8.5 mph 36 % 0 in
12:27 90 °F 59 °F 30.1 in Calm   6.5 mph 35 % 0 in
12:32 90.1 °F 59 °F 30.1 in SE 1.6 mph 6.7 mph 35 % 0 in
12:38 90 °F 59 °F 30.1 in East 6.5 mph 7.8 mph 35 % 0 in
12:48 91.2 °F 59 °F 30.1 in NE 4.9 mph 6.5 mph 34 % 0 in
12:53 90.9 °F 59 °F 30.1 in Calm   6.3 mph 33 % 0 in
12:58 91.2 °F 59 °F 30.1 in East 2 mph 6.3 mph 33 % 0 in
13:03 90.5 °F 59 °F 30.1 in ENE 4 mph 7.4 mph 33 % 0 in
13:08 90.7 °F 59 °F 30.1 in Calm   10.3 mph 33 % 0 in
13:13 90.5 °F 59 °F 30.1 in NE 6.5 mph 10.3 mph 33 % 0 in
13:18 90.5 °F 59 °F 30.1 in NE 4.9 mph 8.9 mph 33 % 0 in
13:23 90.7 °F 59 °F 30.1 in ENE 4.9 mph 7.4 mph 33 % 0 in
13:28 90.9 °F 59 °F 30.1 in SE 8.5 mph 10.7 mph 33 % 0 in
13:33 91.8 °F 59 °F 30.1 in SE 7.8 mph 10.7 mph 33 % 0 in
13:38 91.9 °F 57.2 °F 30.1 in South 7.8 mph 7.8 mph 32 % 0 in
13:43 92.3 °F 59 °F 30.1 in ESE 3.1 mph 7.8 mph 32 % 0 in
13:48 92.1 °F 57.2 °F 30.1 in SE 2.7 mph 8.1 mph 31 % 0 in
13:53 91.6 °F 55.4 °F 30.1 in NNE 5.8 mph 8.5 mph 30 % 0 in
13:58 91.6 °F 57.2 °F 30.1 in East 6.3 mph 8.5 mph 32 % 0 in
14:03 91.6 °F 57.2 °F 30.1 in ENE 2.5 mph 8.1 mph 31 % 0 in
14:08 91.4 °F 57.2 °F 30.1 in NE 7.8 mph 10.1 mph 31 % 0 in
14:13 91.8 °F 57.2 °F 30.1 in Calm   10.1 mph 31 % 0 in
14:18 91.9 °F 55.4 °F 30.1 in East 5.6 mph 6.5 mph 30 % 0 in
14:23 92.3 °F 57.2 °F 30.1 in NE 5.6 mph 6.3 mph 30 % 0 in
14:28 92.1 °F 55.4 °F 30.1 in Calm   7.6 mph 29 % 0 in
14:33 92.7 °F 55.4 °F 30.1 in ESE 3.4 mph 7.6 mph 29 % 0 in
14:38 93.2 °F 55.4 °F 30.1 in NE 1.1 mph 6.5 mph 29 % 0 in
14:43 93.2 °F 55.4 °F 30.1 in SE 3.8 mph 6.5 mph 29 % 0 in
14:48 93.6 °F 57.2 °F 30.1 in SE 3.6 mph 6.5 mph 29 % 0 in
14:54 93.9 °F 57.2 °F 30.1 in South 3.8 mph 4.9 mph 29 % 0 in
14:59 94.3 °F 57.2 °F 30.1 in SSE 4.3 mph 6.5 mph 29 % 0 in
15:04 93.9 °F 55.4 °F 30.1 in SSE 3.8 mph 6.5 mph 28 % 0 in
15:09 93.9 °F 57.2 °F 30.1 in SE 6 mph 6.3 mph 29 % 0 in
15:14 94.1 °F 57.2 °F 30.1 in ESE 2.9 mph 8.1 mph 28 % 0 in
15:19 94.1 °F 55.4 °F 30.1 in Calm   9.4 mph 27 % 0 in
15:24 94.3 °F 57.2 °F 30.1 in SE 1.1 mph 9.4 mph 28 % 0 in
15:29 94.5 °F 55.4 °F 30.1 in Calm   6.3 mph 27 % 0 in
15:34 94.8 °F 55.4 °F 30 in Calm   5.6 mph 27 % 0 in
15:39 95 °F 55.4 °F 30 in ENE 4.9 mph 5.6 mph 27 % 0 in
15:44 95 °F 55.4 °F 30 in East 3.1 mph 4.9 mph 27 % 0 in
15:49 95 °F 55.4 °F 30 in Calm   4.3 mph 27 % 0 in
15:52 94.6 °F 55.4 °F 30 in East 2.7 mph 7.4 mph 27 % 0 in
15:57 95 °F 55.4 °F 30 in Calm   7.4 mph 27 % 0 in
16:02 95.7 °F 57.2 °F 30 in Calm   4 mph 28 % 0 in
16:07 95.4 °F 57.2 °F 30 in East 4.3 mph 5.8 mph 27 % 0 in
16:12 95.4 °F 57.2 °F 30 in North 3.6 mph 5.8 mph 27 % 0 in
16:17 95 °F 55.4 °F 30 in SE 1.6 mph 6 mph 27 % 0 in
16:22 94.8 °F 55.4 °F 30 in NE 5.4 mph 7.8 mph 27 % 0 in
16:27 94.1 °F 55.4 °F 30 in NE 2.7 mph 8.1 mph 27 % 0 in
16:33 94.3 °F 55.4 °F 30 in SE 1.1 mph 7.2 mph 27 % 0 in
16:38 94.6 °F 57.2 °F 30 in Calm   6.3 mph 28 % 0 in
16:43 94.8 °F 55.4 °F 30 in NW 2.5 mph 4.7 mph 26 % 0 in
16:48 94.6 °F 55.4 °F 30 in East 4.9 mph 6 mph 27 % 0 in
16:53 94.5 °F 55.4 °F 30 in Calm   7.2 mph 27 % 0 in
16:58 94.5 °F 55.4 °F 30 in Calm   7.2 mph 27 % 0 in
17:03 94.5 °F 55.4 °F 30 in Calm   5.8 mph 27 % 0 in
17:08 94.3 °F 55.4 °F 30 in Calm   5.8 mph 27 % 0 in
17:13 93.9 °F 53.6 °F 30 in ENE 2.9 mph 7.4 mph 26 % 0 in
17:18 93.9 °F 55.4 °F 30 in Calm   7.4 mph 27 % 0 in
17:23 94.1 °F 55.4 °F 30 in ENE 1.6 mph 6.3 mph 26 % 0 in
17:28 94.6 °F 55.4 °F 30 in Calm   5.6 mph 27 % 0 in
17:33 95.2 °F 55.4 °F 30 in Calm   3.1 mph 26 % 0 in
17:38 95.4 °F 55.4 °F 30 in Calm   3.6 mph 26 % 0 in
17:43 95 °F 55.4 °F 30 in SSE 1.3 mph 5.6 mph 26 % 0 in
17:48 95 °F 55.4 °F 30 in NE 4.9 mph 6 mph 26 % 0 in
17:53 93.7 °F 53.6 °F 30 in Calm   6.5 mph 26 % 0 in
17:58 93.6 °F 53.6 °F 30 in Calm   6.5 mph 25 % 0 in
18:04 93.6 °F 55.4 °F 30 in Calm   4.5 mph 27 % 0 in
18:09 93.4 °F 53.6 °F 30 in SSE 6 mph 6 mph 26 % 0 in
18:14 93.6 °F 53.6 °F 30 in Calm   6.3 mph 26 % 0 in
18:16 93.7 °F 55.4 °F 30 in South 5.6 mph 6.3 mph 27 % 0 in
18:21 93.7 °F 53.6 °F 30 in ESE 3.4 mph 5.6 mph 26 % 0 in
18:26 93.7 °F 53.6 °F 30 in Calm   5.4 mph 26 % 0 in
18:31 93.7 °F 53.6 °F 30 in ESE 5.4 mph 5.4 mph 26 % 0 in
18:36 93.7 °F 53.6 °F 30 in Calm   5.4 mph 25 % 0 in
18:41 93.7 °F 55.4 °F 30 in Calm   3.4 mph 27 % 0 in
18:46 93.7 °F 53.6 °F 30 in Calm   3.8 mph 26 % 0 in
18:51 93.7 °F 53.6 °F 30 in Calm   3.8 mph 26 % 0 in
18:56 93.7 °F 53.6 °F 30 in Calm   3.8 mph 26 % 0 in
19:01 93.9 °F 53.6 °F 30 in Calm   2.2 mph 25 % 0 in
19:06 93.9 °F 53.6 °F 30 in Calm     25 % 0 in
19:11 93.7 °F 53.6 °F 30 in WNW 2.7 mph 4.3 mph 25 % 0 in
19:16 93.7 °F 53.6 °F 30 in NNW 2 mph 4.3 mph 25 % 0 in
19:21 93.7 °F 53.6 °F 30 in West 5.6 mph 6.3 mph 25 % 0 in
19:27 93.7 °F 53.6 °F 30 in NNW 5.8 mph 7.8 mph 25 % 0 in
19:32 93.7 °F 53.6 °F 30 in NNW 3.6 mph 8.9 mph 25 % 0 in
19:37 89.2 °F 57.2 °F 30 in North 8.7 mph 9.2 mph 35 % 0 in
19:42 88.5 °F 59 °F 30 in ENE 7.4 mph 9.2 mph 37 % 0 in
19:47 88.2 °F 59 °F 30 in North 7.8 mph 8.9 mph 38 % 0 in
19:52 87.6 °F 60.8 °F 30 in NNE 6 mph 9.8 mph 39 % 0 in
19:57 87.3 °F 59 °F 30 in North 5.4 mph 9.8 mph 39 % 0 in
20:02 86.9 °F 60.8 °F 30 in North 5.8 mph 9.8 mph 40 % 0 in
20:07 86.7 °F 60.8 °F 30 in NW 5.8 mph 9.6 mph 41 % 0 in
20:10 86.5 °F 60.8 °F 30 in North 3.8 mph 8.7 mph 41 % 0 in
20:13 86.2 °F 60.8 °F 30 in North 2.9 mph 8.7 mph 42 % 0 in
20:18 85.6 °F 60.8 °F 30 in NW 6.3 mph 8.5 mph 43 % 0 in
20:23 85.3 °F 60.8 °F 30 in NNW 3.8 mph 8.5 mph 43 % 0 in
20:28 84.7 °F 60.8 °F 30 in NNE 6 mph 8.5 mph 44 % 0 in
20:33 84.2 °F 60.8 °F 30 in North 5.8 mph 8.5 mph 44 % 0 in
20:39 83.7 °F 60.8 °F 30 in NNE 6.3 mph 8.5 mph 45 % 0 in
20:44 83.3 °F 60.8 °F 30 in North 4.9 mph 8.1 mph 46 % 0 in
20:49 82.4 °F 60.8 °F 30 in NNW 8.1 mph 8.7 mph 46 % 0 in
20:54 81.9 °F 60.8 °F 30 in NNW 5.8 mph 8.7 mph 48 % 0 in
20:59 81.1 °F 60.8 °F 30 in North 5.4 mph 8.1 mph 49 % 0 in
21:04 80.8 °F 60.8 °F 30 in NNE 2.7 mph 8.1 mph 50 % 0 in
21:09 80.2 °F 60.8 °F 30 in North 7.4 mph 7.6 mph 51 % 0 in
21:14 79.9 °F 60.8 °F 30 in NW 7.8 mph 7.8 mph 51 % 0 in
21:19 79.3 °F 60.8 °F 30 in NE 4 mph 7.8 mph 52 % 0 in
21:24 78.8 °F 60.8 °F 30 in NNE 4.7 mph 7.4 mph 52 % 0 in
21:29 78.4 °F 60.8 °F 30 in NNW 5.6 mph 7.8 mph 54 % 0 in
21:34 77.9 °F 60.8 °F 30 in North 4 mph 7.8 mph 55 % 0 in
21:39 77.5 °F 60.8 °F 30 in North 6.5 mph 6.5 mph 56 % 0 in
21:44 77.2 °F 60.8 °F 30 in NE 2.7 mph 6.5 mph 56 % 0 in
21:49 76.6 °F 59 °F 30.1 in North 4.5 mph 6.3 mph 56 % 0 in
21:54 76.3 °F 60.8 °F 30.1 in North 5.4 mph 6.3 mph 58 % 0 in
21:59 75.9 °F 60.8 °F 30.1 in North 5.4 mph 6.3 mph 58 % 0 in
22:04 75.6 °F 60.8 °F 30 in North 4.3 mph 5.8 mph 59 % 0 in
22:09 75.2 °F 60.8 °F 30 in NW 2.9 mph 5.8 mph 59 % 0 in
22:10 75.2 °F 60.8 °F 30 in NNE 2.9 mph 5.8 mph 60 % 0 in
22:15 74.8 °F 60.8 °F 30 in North 3.4 mph 5.8 mph 60 % 0 in
22:20 74.7 °F 60.8 °F 30 in North 4.9 mph 4.9 mph 61 % 0 in
22:25 74.3 °F 60.8 °F 30 in North 4.9 mph 5.6 mph 61 % 0 in
22:30 73.9 °F 60.8 °F 30 in North 6.5 mph 6.5 mph 62 % 0 in
22:35 73.8 °F 60.8 °F 30 in North 4.3 mph 6.5 mph 62 % 0 in
22:40 73.4 °F 60.8 °F 30 in Calm   6 mph 63 % 0 in
22:45 73.2 °F 60.8 °F 30 in NNE 4 mph 7.2 mph 64 % 0 in
22:51 73 °F 60.8 °F 30 in North 3.6 mph 7.2 mph 65 % 0 in
22:56 72.9 °F 60.8 °F 30 in NNE 4.9 mph 6.5 mph 64 % 0 in
23:01 72.5 °F 60.8 °F 30 in North 2.9 mph 6 mph 66 % 0 in
23:06 72.3 °F 60.8 °F 30 in NNW 4.3 mph 6.3 mph 66 % 0 in
23:11 72.1 °F 60.8 °F 30 in NNE 3.8 mph 6.5 mph 66 % 0 in
23:16 72 °F 60.8 °F 30 in NNE 2.7 mph 6.5 mph 67 % 0 in
23:21 71.8 °F 59 °F 30 in North 3.8 mph 6.5 mph 66 % 0 in
23:26 71.4 °F 60.8 °F 30 in NE 4.3 mph 6 mph 68 % 0 in
23:31 71.2 °F 60.8 °F 30 in NNW 3.8 mph 5.6 mph 68 % 0 in
23:36 71.1 °F 60.8 °F 30 in NE 4.3 mph 5.6 mph 68 % 0 in
23:41 70.5 °F 59 °F 30 in NNE 2.7 mph 5.6 mph 68 % 0 in
23:46 70.2 °F 59 °F 30 in NE 2.7 mph 4.3 mph 68 % 0 in
23:51 69.6 °F 59 °F 30 in Calm   4.3 mph 69 % 0 in
23:56 69.3 °F 59 °F 30 in Calm   3.6 mph 71 % 0 in
Le Gheer Warneton
Courtoisie de Weather Underground - 2.25 mb

Mise a jour : 17/12/2017 22:20:15
Généré par Cumulus 1.9.4 (1099)